C/2017 F2 ( PanSTARRS )

Japanese version
Home page
Updated on December 24, 2017

---------------------------------------------------------------------

* Profile

Discovery Date March 31, 2017
Magnitude 21.2 mag
Discoverer Pan-STARRS 1 telescope (Haleakala)

* Pictures

* Orbital Elements

Epoch 2017 Nov. 23.0 TT = JDT 2458080.5
T 2017 Nov. 26.41613 TT                                 MPCW
q   6.9275504            (2000.0)            P               Q
z  -0.0007578      Peri.  134.91902     -0.87746703     -0.22763278
 +/-0.0000068      Node    38.66857     -0.22116158     -0.58902569
e   1.0052495      Incl.   42.50750     +0.42560447     -0.77539155
From 40 observations 2017 Mar. 31-Nov. 23, mean residual 0".4.

* Magnitudes Graph

        m1 = 7.5 + 5 log d + 10.0 log r

---------------------------------------------------------------------

The orbital elements are published on M.P.E.C. 2017-X08.
The magnitudes graphs are made with Comet for Windows.

---------------------------------------------------------------------

Copyright(C) Seiichi Yoshida (comet@aerith.net). All rights reserved.